[[{"header":{"parameterUnit":"m.s-1","parameterCategory":2,"la1":30.2992,"la2":30.254,"lo1":-89.0895,"lo2":-89.0443,"dy":0.0025,"dx":0.0025,"nx":19,"ny":19,"refTime":"2026-03-25T21:00:00:Z","depth":"0","parameterNumber":2,"parameterNumberName":"U-component_of_CURRENTS"},"data":[0,0,0,-0.1916,-0.1918,-0.1975,-0.1975,-0.1995,-0.1995,0,0,0,0,0,0,0,0,0,0,0,-0.1886,-0.1887,-0.1916,-0.1918,-0.1975,-0.1975,-0.1995,-0.1995,0,0,0,0,0,0,0,0,0,0,0,-0.1886,-0.1887,-0.1887,-0.1918,-0.1975,-0.1975,-0.1995,-0.1962,0,0,0,0,0,0,0,0,0,0,-0.1912,-0.1882,-0.1886,-0.1887,-0.1919,-0.1975,-0.1975,-0.1961,-0.1964,-0.1957,0,-0.1969,0,-0.1991,-0.1996,-0.1996,0,0,0,-0.1906,-0.1879,-0.1913,-0.1887,-0.1919,-0.1975,-0.1946,-0.1963,-0.1966,-0.196,-0.197,-0.1971,-0.1992,-0.1996,-0.1996,-0.2032,-0.2032,0,0,-0.1903,-0.1877,-0.1911,-0.1916,-0.1938,-0.1944,-0.1948,-0.1965,-0.1958,-0.197,-0.1972,-0.1992,-0.1996,-0.1996,-0.2032,-0.2032,0,0,0,-0.1902,-0.1875,-0.1909,-0.1914,-0.1934,-0.1946,-0.1951,-0.1957,-0.1974,-0.1973,-0.1992,-0.1996,-0.1996,-0.2031,-0.2032,-0.2041,0,0,0,-0.1899,-0.1875,-0.1907,-0.189,-0.1934,-0.1951,-0.1941,-0.1972,-0.1976,-0.1992,-0.1996,-0.1997,-0.2031,-0.2031,-0.204,-0.2034,0,0,0,-0.1883,-0.1873,-0.1886,-0.1889,-0.1922,-0.1952,-0.1968,-0.1974,-0.1988,-0.1996,-0.1997,-0.2031,-0.2031,-0.2039,-0.2033,-0.201,0,0,0,-0.1846,-0.1886,-0.1884,-0.1941,-0.1922,-0.2,-0.1969,-0.2009,-0.2021,-0.1996,-0.2031,-0.2032,-0.2039,-0.2032,-0.201,-0.1788,-0.1771,0,0,-0.1886,-0.1889,-0.193,-0.1933,-0.2013,-0.199,-0.2036,-0.2031,-0.2024,-0.2019,-0.202,-0.204,-0.2033,-0.201,-0.1826,-0.1806,0,0,0,-0.1938,-0.1956,-0.1986,-0.2026,-0.2074,-0.2072,-0.2075,-0.2057,-0.2047,-0.2036,-0.2051,-0.2046,-0.2031,-0.1898,-0.1883,-0.1809,-0.2035,-0.2035,-0.2034,-0.1906,-0.1966,-0.2018,-0.2078,-0.2113,-0.2124,-0.2114,-0.2083,-0.2083,-0.2073,-0.2061,-0.2061,-0.1921,-0.1907,-0.1835,-0.2076,-0.2076,-0.2076,-0.2076,-0.1939,-0.1959,-0.2015,-0.2085,-0.21,-0.212,-0.2118,-0.2103,-0.2072,-0.2075,-0.206,-0.1924,-0.189,-0.1819,-0.2077,-0.2077,-0.2077,-0.2077,-0.2077,-0.1902,-0.1914,-0.1969,-0.2024,-0.2053,-0.2085,-0.2065,-0.2077,-0.2072,-0.2064,-0.19,-0.1897,-0.1824,-0.2055,-0.2055,-0.2055,-0.2055,-0.2055,-0.2055,-0.1811,-0.1872,-0.1879,-0.1953,-0.1964,-0.1991,-0.2027,-0.2008,-0.193,-0.1882,-0.188,-0.1797,-0.2054,-0.2043,-0.2053,-0.2053,-0.2053,-0.2054,-0.2054,-0.1724,-0.1749,-0.1754,-0.1768,-0.1813,-0.1741,-0.1845,-0.1717,-0.1727,-0.1627,-0.1546,-0.1769,-0.1736,-0.1745,-0.1726,-0.1654,-0.1654,-0.1654,-0.1654,-0.1619,-0.1649,-0.1607,-0.1603,-0.1613,-0.1618,-0.137,-0.1256,-0.1226,-0.1192,-0.1346,-0.1297,-0.1316,-0.126,-0.128,-0.1252,-0.1062,-0.1062,-0.1061,-0.1507,-0.1524,-0.1447,-0.1489,-0.1506,-0.1418,-0.1045,-0.0673,-0.0767,-0.1042,-0.1294,-0.1319,-0.1261,-0.1297,-0.1222,-0.1255,-0.1216,0,0]},{"header":{"parameterUnit":"m.s-1","parameterCategory":2,"la1":30.2992,"la2":30.254,"lo1":-89.0895,"lo2":-89.0443,"dy":0.0025,"dx":0.0025,"nx":19,"ny":19,"refTime":"2026-03-25T21:00:00:Z","depth":"0","parameterNumber":3,"parameterNumberName":"V-component_of_CURRENTS"},"data":[0,0,0,-0.002,-0.0018,0.0109,0.0109,0.0268,0.0269,0,0,0,0,0,0,0,0,0,0,0,-0.0069,-0.0069,-0.0021,-0.0018,0.0109,0.0109,0.0268,0.0269,0,0,0,0,0,0,0,0,0,0,0,-0.0069,-0.0069,-0.0068,-0.0017,0.0108,0.0109,0.0268,0.0175,0,0,0,0,0,0,0,0,0,0,0.0054,-0.0017,-0.0069,-0.0068,-0.0017,0.0108,0.0109,0.0171,0.0181,0.0207,0,0.0218,0,0.0246,0.0279,0.028,0,0,0,-0.0007,-0.0026,0.003,-0.0068,-0.0016,0.0108,0.0055,0.0177,0.0188,0.022,0.0221,0.0227,0.0248,0.028,0.0281,0.0348,0.0347,0,0,-0.0014,-0.0063,0.0022,0.0037,0.0007,0.005,0.0058,0.0184,0.0178,0.0221,0.0231,0.0251,0.0281,0.0282,0.0348,0.0348,0,0,0,-0.0041,-0.0068,-0.0015,0.003,0.0053,0.0054,0.0063,0.0172,0.0196,0.0233,0.0253,0.0282,0.0283,0.0348,0.0348,0.0192,0,0,0,-0.0045,-0.0084,-0.0019,-0.0048,0.005,0.0109,0.0048,0.0187,0.0202,0.0252,0.0282,0.0285,0.0349,0.0348,0.0197,0.0119,0,0,0,-0.0073,-0.0087,-0.0071,-0.0051,0.0003,0.0108,0.0138,0.0191,0.0214,0.028,0.0285,0.0349,0.0348,0.0201,0.0127,0.0134,0,0,0,-0.0128,-0.0149,-0.0073,-0.0096,0.0001,0.0046,0.0138,0.0179,0.0224,0.0282,0.0349,0.0348,0.0203,0.0133,0.0138,0.0309,0.0303,0,0,-0.019,-0.0159,-0.0172,-0.01,-0.0108,0.003,0.0025,0.0128,0.0224,0.031,0.0312,0.0195,0.0128,0.0135,0.0262,0.0258,0,0,0,-0.0216,-0.0235,-0.0221,-0.0206,-0.0129,-0.0087,0.0033,0.0087,0.0162,0.0248,0.0223,0.0186,0.0195,0.0308,0.0304,0.0492,0.0344,0.0344,0.0344,-0.0387,-0.0338,-0.0377,-0.0316,-0.0279,-0.0163,-0.0122,-0.0019,0.0085,0.0093,0.0079,0.0001,0.0119,0.0119,0.0308,0.0109,0.0109,0.0108,0.0108,-0.0526,-0.0552,-0.05,-0.0515,-0.0434,-0.0408,-0.0275,-0.0198,-0.0117,-0.0036,-0.0018,0.0162,0.0106,0.031,0.0098,0.01,0.0101,0.0102,0.0103,-0.0652,-0.0655,-0.0652,-0.0666,-0.0661,-0.0555,-0.0525,-0.0414,-0.0265,-0.026,-0.0035,-0.0029,0.0139,-0.0219,-0.022,-0.022,-0.022,-0.022,-0.0221,-0.0769,-0.0765,-0.0817,-0.0819,-0.083,-0.0807,-0.0668,-0.0567,-0.0335,-0.0184,-0.018,0.0153,-0.0096,-0.0097,-0.0226,-0.0225,-0.0224,-0.0224,-0.0224,-0.0894,-0.0884,-0.0968,-0.0997,-0.1013,-0.0934,-0.0827,-0.0477,-0.0354,-0.0181,0.0187,-0.0099,-0.0015,-0.0007,-0.0002,-0.01,-0.01,-0.01,-0.01,-0.0976,-0.098,-0.1079,-0.1134,-0.1152,-0.0998,-0.0668,-0.0268,0.0173,0.0399,0.0337,0.0461,0.0448,0.0564,0.0559,0.0579,0.0631,0.0632,0.0633,-0.105,-0.1071,-0.1149,-0.1184,-0.1198,-0.0984,-0.0535,0.0095,0.0656,0.0674,0.0553,0.0523,0.0712,0.0676,0.0871,0.0849,0.0885,0,0]}],[{"header":{"parameterUnit":"m.s-1","parameterCategory":2,"la1":30.2992,"la2":30.254,"lo1":-89.0895,"lo2":-89.0443,"dy":0.0025,"dx":0.0025,"nx":19,"ny":19,"refTime":"2026-03-25T21:00:00:Z","depth":"2","parameterNumber":2,"parameterNumberName":"U-component_of_CURRENTS"},"data":[0,0,0,-0.1868,-0.1869,-0.1947,-0.1948,-0.2024,-0.2024,0,0,0,0,0,0,0,0,0,0,0,-0.1836,-0.1836,-0.1868,-0.187,-0.1947,-0.1948,-0.2024,-0.2024,0,0,0,0,0,0,0,0,0,0,0,-0.1836,-0.1836,-0.1837,-0.187,-0.1947,-0.1948,-0.2024,-0.1971,0,0,0,0,0,0,0,0,0,0,-0.1898,-0.1862,-0.1836,-0.1837,-0.187,-0.1947,-0.1948,-0.1969,-0.1974,-0.1982,0,-0.1992,0,-0.2012,-0.2029,-0.2029,0,0,0,-0.1871,-0.1857,-0.1889,-0.1837,-0.1871,-0.1947,-0.1913,-0.1972,-0.1978,-0.1989,-0.1993,-0.1996,-0.2013,-0.2029,-0.203,-0.2102,-0.2102,0,0,-0.1866,-0.1841,-0.1885,-0.1893,-0.1889,-0.191,-0.1915,-0.1976,-0.1974,-0.1993,-0.1999,-0.2014,-0.203,-0.203,-0.2102,-0.2102,0,0,0,-0.1853,-0.1837,-0.1868,-0.1889,-0.1907,-0.1912,-0.1918,-0.1971,-0.1985,-0.1999,-0.2015,-0.203,-0.2031,-0.2101,-0.2102,-0.2112,0,0,0,-0.1851,-0.183,-0.1866,-0.185,-0.1905,-0.1941,-0.1911,-0.198,-0.1988,-0.2015,-0.203,-0.2032,-0.2101,-0.2102,-0.2112,-0.211,0,0,0,-0.1833,-0.1828,-0.1839,-0.1849,-0.1885,-0.1941,-0.1957,-0.1983,-0.1998,-0.2029,-0.2032,-0.2101,-0.2102,-0.2111,-0.2109,-0.2085,0,0,0,-0.1802,-0.182,-0.1838,-0.187,-0.1884,-0.1955,-0.1957,-0.2005,-0.2034,-0.2031,-0.2101,-0.2102,-0.211,-0.2108,-0.2085,-0.1922,-0.191,0,0,-0.1812,-0.182,-0.1845,-0.1863,-0.1927,-0.1945,-0.2005,-0.2038,-0.2045,-0.2079,-0.2081,-0.2112,-0.2109,-0.2085,-0.1963,-0.1949,0,0,0,-0.184,-0.1853,-0.1877,-0.1917,-0.197,-0.2013,-0.205,-0.2062,-0.2093,-0.2066,-0.2123,-0.2121,-0.2105,-0.2007,-0.1997,-0.2105,-0.2105,-0.2105,-0.2105,-0.1801,-0.1852,-0.1891,-0.1955,-0.2001,-0.2063,-0.2091,-0.2113,-0.2121,-0.2133,-0.2138,-0.2139,-0.2037,-0.2027,-0.2151,-0.2151,-0.2151,-0.2151,-0.2151,-0.1808,-0.1824,-0.1896,-0.195,-0.2012,-0.2062,-0.2128,-0.2138,-0.2155,-0.2162,-0.2146,-0.2035,-0.2015,-0.2152,-0.2152,-0.2152,-0.2152,-0.2152,-0.2152,-0.1765,-0.1776,-0.1826,-0.1901,-0.197,-0.2049,-0.2086,-0.2138,-0.2152,-0.2155,-0.2022,-0.2019,-0.2124,-0.2138,-0.2138,-0.2138,-0.2138,-0.2138,-0.2138,-0.168,-0.1735,-0.1755,-0.1848,-0.1885,-0.1958,-0.2057,-0.2069,-0.2039,-0.2014,-0.2012,-0.2134,-0.2135,-0.2123,-0.2136,-0.2136,-0.2137,-0.2137,-0.2137,-0.1599,-0.1625,-0.1648,-0.1682,-0.1772,-0.1766,-0.1909,-0.1881,-0.1902,-0.1841,-0.1921,-0.1927,-0.1899,-0.1905,-0.1888,-0.184,-0.184,-0.184,-0.1839,-0.1514,-0.1541,-0.153,-0.1549,-0.1595,-0.1664,-0.1587,-0.1597,-0.1641,-0.1613,-0.1624,-0.1594,-0.1609,-0.1566,-0.158,-0.1556,-0.1422,-0.1421,-0.1421,-0.1439,-0.1456,-0.1403,-0.1443,-0.1491,-0.1504,-0.1364,-0.1259,-0.1254,-0.141,-0.1609,-0.18,-0.1782,-0.1797,-0.1753,-0.1767,-0.1737,0,0]},{"header":{"parameterUnit":"m.s-1","parameterCategory":2,"la1":30.2992,"la2":30.254,"lo1":-89.0895,"lo2":-89.0443,"dy":0.0025,"dx":0.0025,"nx":19,"ny":19,"refTime":"2026-03-25T21:00:00:Z","depth":"2","parameterNumber":3,"parameterNumberName":"V-component_of_CURRENTS"},"data":[0,0,0,-0.0303,-0.0303,-0.027,-0.027,-0.0186,-0.0185,0,0,0,0,0,0,0,0,0,0,0,-0.0311,-0.0311,-0.0303,-0.0303,-0.027,-0.027,-0.0186,-0.0185,0,0,0,0,0,0,0,0,0,0,0,-0.0311,-0.0311,-0.0311,-0.0303,-0.027,-0.027,-0.0186,-0.0219,0,0,0,0,0,0,0,0,0,0,-0.0255,-0.0274,-0.0311,-0.0311,-0.0303,-0.027,-0.027,-0.0221,-0.0217,-0.0192,0,-0.0192,0,-0.0192,-0.0179,-0.0179,0,0,0,-0.0292,-0.0277,-0.0269,-0.0311,-0.0303,-0.027,-0.0282,-0.0219,-0.0214,-0.0187,-0.0191,-0.0188,-0.019,-0.0179,-0.0178,-0.0112,-0.0112,0,0,-0.0294,-0.0301,-0.0272,-0.0267,-0.03,-0.0283,-0.0281,-0.0216,-0.0212,-0.0191,-0.0187,-0.0189,-0.0178,-0.0178,-0.0112,-0.0112,0,0,0,-0.0307,-0.0303,-0.0296,-0.027,-0.027,-0.0282,-0.028,-0.0215,-0.0214,-0.0186,-0.0188,-0.0178,-0.0177,-0.0112,-0.0112,-0.0181,0,0,0,-0.0307,-0.0311,-0.0297,-0.0301,-0.0272,-0.0249,-0.028,-0.0218,-0.0211,-0.0188,-0.0178,-0.0176,-0.0112,-0.0112,-0.0179,-0.0206,0,0,0,-0.0312,-0.0311,-0.0309,-0.0301,-0.0292,-0.025,-0.0244,-0.0217,-0.0212,-0.0179,-0.0176,-0.0112,-0.0112,-0.0178,-0.0203,-0.0178,0,0,0,-0.0316,-0.034,-0.031,-0.0336,-0.0293,-0.0293,-0.0245,-0.0235,-0.0213,-0.0177,-0.0112,-0.0112,-0.0177,-0.0202,-0.0177,-0.0103,-0.0102,0,0,-0.0356,-0.0345,-0.0363,-0.0336,-0.036,-0.0297,-0.0297,-0.0245,-0.0195,-0.0128,-0.0127,-0.018,-0.0203,-0.0178,-0.0089,-0.0088,0,0,0,-0.0383,-0.0397,-0.0399,-0.0402,-0.0381,-0.0353,-0.0296,-0.0255,-0.0197,-0.0182,-0.0155,-0.0167,-0.0149,-0.0101,-0.0101,-0.011,-0.0111,-0.0111,-0.0111,-0.044,-0.0437,-0.047,-0.046,-0.0446,-0.0384,-0.0348,-0.0273,-0.0227,-0.0205,-0.0206,-0.021,-0.016,-0.0159,-0.0185,-0.0186,-0.0186,-0.0186,-0.0186,-0.0514,-0.0541,-0.0521,-0.0554,-0.0507,-0.0488,-0.0388,-0.0341,-0.0259,-0.0231,-0.021,-0.0155,-0.0162,-0.0191,-0.019,-0.019,-0.0189,-0.0189,-0.0188,-0.0562,-0.0578,-0.059,-0.062,-0.061,-0.055,-0.0505,-0.042,-0.032,-0.0303,-0.0199,-0.0197,-0.0245,-0.0281,-0.0281,-0.0281,-0.0281,-0.0281,-0.0281,-0.0608,-0.0623,-0.0671,-0.069,-0.0704,-0.068,-0.0569,-0.0492,-0.0341,-0.0253,-0.0252,-0.024,-0.0237,-0.0247,-0.0282,-0.0282,-0.0282,-0.0282,-0.0282,-0.068,-0.0679,-0.0757,-0.0787,-0.0812,-0.079,-0.0676,-0.046,-0.0354,-0.0257,-0.02,-0.0202,-0.016,-0.0159,-0.0165,-0.0176,-0.0176,-0.0176,-0.0176,-0.0719,-0.0728,-0.0823,-0.0879,-0.0906,-0.0841,-0.069,-0.0456,-0.0242,-0.014,-0.0142,-0.0124,-0.0128,-0.0083,-0.0084,-0.0088,-0.0079,-0.0079,-0.0079,-0.0761,-0.0788,-0.0856,-0.0911,-0.0948,-0.0878,-0.0707,-0.0385,-0.009,-0.0081,-0.0178,-0.016,-0.0136,-0.0142,-0.0074,-0.0075,-0.0081,0,0]}],[{"header":{"parameterUnit":"m.s-1","parameterCategory":2,"la1":30.2992,"la2":30.254,"lo1":-89.0895,"lo2":-89.0443,"dy":0.0025,"dx":0.0025,"nx":19,"ny":19,"refTime":"2026-03-25T21:00:00:Z","depth":"4","parameterNumber":2,"parameterNumberName":"U-component_of_CURRENTS"},"data":[0,0,0,-0.1389,-0.1392,-0.1536,-0.1536,-0.1654,-0.1654,0,0,0,0,0,0,0,0,0,0,0,-0.1343,-0.1344,-0.1389,-0.1392,-0.1536,-0.1536,-0.1653,-0.1654,0,0,0,0,0,0,0,0,0,0,0,-0.1343,-0.1344,-0.1345,-0.1393,-0.1536,-0.1537,-0.1653,-0.1562,0,0,0,0,0,0,0,0,0,0,-0.1432,-0.1396,-0.1344,-0.1345,-0.1394,-0.1535,-0.1537,-0.1559,-0.1568,-0.1568,0,-0.1596,0,-0.1623,-0.166,-0.1661,0,0,0,-0.1397,-0.1389,-0.1427,-0.1345,-0.1395,-0.1535,-0.1472,-0.1565,-0.1575,-0.158,-0.1598,-0.1603,-0.1625,-0.1661,-0.1661,-0.1768,-0.1768,0,0,-0.1389,-0.1368,-0.142,-0.1434,-0.1439,-0.1468,-0.1477,-0.1572,-0.1583,-0.1598,-0.1606,-0.1627,-0.1661,-0.1662,-0.1767,-0.1768,0,0,0,-0.1363,-0.1363,-0.14,-0.1428,-0.1458,-0.1472,-0.1482,-0.158,-0.1593,-0.1607,-0.1629,-0.1662,-0.1663,-0.1767,-0.1768,-0.1788,0,0,0,-0.1358,-0.1347,-0.1397,-0.1386,-0.1456,-0.1529,-0.1488,-0.1586,-0.1598,-0.1628,-0.1662,-0.1664,-0.1766,-0.1767,-0.1786,-0.1785,0,0,0,-0.1335,-0.1345,-0.1364,-0.1384,-0.1444,-0.1529,-0.1548,-0.159,-0.161,-0.1661,-0.1664,-0.1766,-0.1767,-0.1785,-0.1783,-0.1777,0,0,0,-0.1306,-0.1336,-0.1363,-0.1411,-0.1443,-0.1536,-0.1548,-0.1625,-0.1673,-0.1662,-0.1766,-0.1767,-0.1784,-0.1782,-0.1776,-0.1555,0,0,0,-0.1323,-0.1338,-0.1367,-0.1395,-0.1474,-0.1516,-0.1603,-0.1668,-0.1687,-0.1729,-0.1733,-0.1787,-0.1783,-0.1777,-0.1629,0,0,0,0,-0.1359,-0.1379,-0.1409,-0.1465,-0.1534,-0.1604,-0.1671,-0.1699,-0.1764,-0.172,-0.1806,-0.1803,-0.1798,-0.1668,-0.1773,-0.1773,-0.1773,-0.1773,-0.1773,-0.1334,-0.1385,-0.1439,-0.1511,-0.1576,-0.1673,-0.1726,-0.1776,-0.1793,-0.1827,-0.1834,-0.1863,-0.1729,-0.1856,-0.1856,-0.1857,-0.1857,-0.1857,-0.1857,-0.1344,-0.1367,-0.1452,-0.1524,-0.161,-0.1689,-0.1785,-0.1815,-0.1867,-0.1874,-0.1868,-0.1718,-0.1859,-0.1859,-0.1858,-0.1858,-0.1858,-0.1858,-0.1858,-0.1302,-0.1319,-0.1388,-0.1491,-0.1593,-0.1699,-0.1759,-0.1838,-0.1877,-0.1892,-0.1739,-0.1871,-0.1851,-0.1889,-0.1889,-0.1889,-0.1889,-0.1889,-0.1889,-0.1215,-0.1286,-0.1333,-0.1455,-0.1518,-0.1616,-0.1749,-0.177,-0.1833,-0.1733,-0.1895,-0.1874,-0.1873,-0.1853,-0.1889,-0.1889,-0.1889,-0.1889,-0.1889,-0.114,-0.1182,-0.1234,-0.1296,-0.1424,-0.1477,-0.1642,-0.1633,-0.163,-0.1571,-0.164,-0.1652,-0.1616,-0.1621,-0.1591,-0.1551,-0.1549,-0.1546,0,-0.1066,-0.1097,-0.1137,-0.1188,-0.1239,-0.1379,-0.1341,-0.1397,-0.1437,-0.1386,-0.1617,-0.1695,-0.1702,-0.1664,-0.1665,-0.1629,0,0,0,-0.1007,-0.1031,-0.102,-0.1089,-0.1137,-0.1191,-0.1317,-0.1269,-0.1451,-0.1378,-0.1477,-0.1495,-0.1748,-0.1889,-0.1864,-0.1862,-0.1829,0,0]},{"header":{"parameterUnit":"m.s-1","parameterCategory":2,"la1":30.2992,"la2":30.254,"lo1":-89.0895,"lo2":-89.0443,"dy":0.0025,"dx":0.0025,"nx":19,"ny":19,"refTime":"2026-03-25T21:00:00:Z","depth":"4","parameterNumber":3,"parameterNumberName":"V-component_of_CURRENTS"},"data":[0,0,0,-0.0251,-0.0251,-0.0244,-0.0244,-0.0195,-0.0195,0,0,0,0,0,0,0,0,0,0,0,-0.0252,-0.0252,-0.0251,-0.0251,-0.0244,-0.0244,-0.0195,-0.0195,0,0,0,0,0,0,0,0,0,0,0,-0.0252,-0.0252,-0.0252,-0.0251,-0.0244,-0.0244,-0.0195,-0.0209,0,0,0,0,0,0,0,0,0,0,-0.022,-0.0231,-0.0252,-0.0252,-0.0252,-0.0244,-0.0244,-0.021,-0.0208,-0.0189,0,-0.0193,0,-0.0196,-0.0191,-0.0191,0,0,0,-0.0244,-0.0233,-0.023,-0.0252,-0.0252,-0.0244,-0.0245,-0.0209,-0.0207,-0.0187,-0.0192,-0.0191,-0.0195,-0.0191,-0.019,-0.0139,-0.0139,0,0,-0.0244,-0.0248,-0.0232,-0.0229,-0.0255,-0.0246,-0.0245,-0.0208,-0.0207,-0.0192,-0.019,-0.0194,-0.019,-0.019,-0.0139,-0.0139,0,0,0,-0.0251,-0.0248,-0.0248,-0.0231,-0.0234,-0.0246,-0.0245,-0.0209,-0.0209,-0.0189,-0.0194,-0.019,-0.0189,-0.0139,-0.0139,-0.0189,0,0,0,-0.025,-0.0253,-0.0248,-0.025,-0.0236,-0.0228,-0.0247,-0.0211,-0.0207,-0.0194,-0.019,-0.0189,-0.0139,-0.0139,-0.0188,-0.0206,0,0,0,-0.0251,-0.0253,-0.0254,-0.025,-0.0251,-0.0229,-0.0226,-0.0211,-0.021,-0.0191,-0.0189,-0.0139,-0.0139,-0.0188,-0.0204,-0.018,0,0,0,-0.0252,-0.0272,-0.0254,-0.0277,-0.0251,-0.0258,-0.0227,-0.0228,-0.0217,-0.019,-0.0139,-0.0139,-0.0187,-0.0203,-0.018,-0.0185,0,0,0,-0.0281,-0.0275,-0.029,-0.0275,-0.0299,-0.0258,-0.0263,-0.0235,-0.0198,-0.0148,-0.0147,-0.0189,-0.0204,-0.018,-0.016,0,0,0,0,-0.0303,-0.0314,-0.0319,-0.0327,-0.0318,-0.0302,-0.0269,-0.0237,-0.0196,-0.019,-0.0166,-0.0173,-0.0157,-0.0158,-0.0137,-0.0137,-0.0137,-0.0137,-0.0137,-0.0339,-0.0342,-0.0371,-0.0371,-0.0366,-0.0327,-0.0302,-0.0245,-0.0216,-0.0196,-0.0198,-0.0192,-0.0195,-0.018,-0.0181,-0.0181,-0.0181,-0.0181,-0.0181,-0.039,-0.0411,-0.0407,-0.0439,-0.0412,-0.0403,-0.0327,-0.0294,-0.0226,-0.0208,-0.019,-0.0191,-0.0186,-0.0185,-0.0184,-0.0184,-0.0183,-0.0183,-0.0183,-0.0418,-0.0431,-0.0451,-0.0487,-0.0489,-0.0452,-0.0418,-0.0352,-0.027,-0.0255,-0.0217,-0.0206,-0.0218,-0.0237,-0.0237,-0.0237,-0.0237,-0.0237,-0.0237,-0.0439,-0.046,-0.0508,-0.0537,-0.056,-0.055,-0.0467,-0.0405,-0.0315,-0.026,-0.0258,-0.021,-0.0208,-0.0219,-0.0237,-0.0237,-0.0237,-0.0237,-0.0237,-0.048,-0.049,-0.0563,-0.06,-0.0642,-0.0625,-0.0555,-0.0404,-0.0332,-0.0255,-0.0245,-0.0244,-0.0217,-0.0214,-0.0225,-0.0245,-0.0245,-0.0245,0,-0.0501,-0.0514,-0.0608,-0.067,-0.0697,-0.0663,-0.0561,-0.0462,-0.0337,-0.0347,-0.0341,-0.0338,-0.0335,-0.0312,-0.031,-0.0327,0,0,0,-0.0527,-0.0555,-0.0622,-0.0686,-0.0721,-0.0606,-0.053,-0.0473,-0.037,-0.0268,-0.0248,-0.0247,-0.0261,-0.0236,-0.0191,-0.0189,-0.0204,0,0]}]]